AV194 Weather Reports


Display with metric or nautical units.
time (UTC)temp
F
wind
direction
speed
MPH
gust
MPH
rain 1hr
in
rain 24hr
in
rain mn
in
humidity
%
barometer
mb
20260901135511 62 360 0.0 4.0 0.12 0.37 0.37 94 1016.7
20260901135012 62 17 1.0 5.0 0.13 0.37 0.37 94 1016.6
20260901134511 62 37 1.0 5.0 0.14 0.36 0.36 94 1016.7
20260901134007 62 350 1.0 2.0 0.16 0.35 0.35 94 1016.7
20260901133507 62 115 0.0 4.0 0.20 0.34 0.34 94 1016.8
20260901133006 62 91 1.0 4.0 0.22 0.33 0.33 94 1016.9
20260901132505 62 65 0.0 4.0 0.25 0.33 0.33 94 1016.9
20260901132005 62 111 0.0 2.0 0.26 0.32 0.32 94 1017.0
20260901131504 62 126 0.0 4.0 0.26 0.30 0.30 94 1017.1
20260901131006 62 155 1.0 4.0 0.26 0.28 0.28 93 1017.2
20260901130504 62 98 0.0 5.0 0.26 0.27 0.27 93 1017.3
20260901130002 62 17 1.0 9.0 0.26 0.26 0.26 93 1017.3
20260901125602 63 84 2.0 9.0 0.25 0.25 0.25 93 1017.2
20260901125200 63 61 4.0 9.0 0.24 0.24 0.24 93 1017.3
20260901124600 63 82 1.0 5.0 0.22 0.22 0.22 93 1017.4
20260901124057 63 36 1.0 4.0 0.19 0.19 0.19 92 1017.4
20260901123558 63 62 0.0 2.0 0.14 0.14 0.14 92 1017.3
20260901123055 63 84 0.0 2.0 0.11 0.11 0.11 92 1017.4
20260901122553 63 86 0.0 5.0 0.08 0.08 0.08 92 1017.3
20260901122056 64 57 1.0 5.0 0.06 0.06 0.06 91 1017.4
20260901121559 64 54 0.0 2.0 0.04 0.04 0.04 91 1017.5
20260901121052 64 28 0.0 2.0 0.02 0.02 0.02 91 1017.5
20260901120551 64 46 0.0 1.0 0.01 0.01 0.01 90 1017.3
20260901115549 64 57 0.0 1.0 0.00 0.00 0.00 90 1017.2
20260901115051 64 57 0.0 1.0 0.00 0.00 0.00 90 1017.2
20260901114548 64 57 0.0 1.0 0.00 0.00 0.00 90 1017.1
20260901114051 64 57 0.0 1.0 0.00 0.00 0.00 90 1017.0
20260901113547 64 119 0.0 1.0 0.00 0.00 0.00 90 1016.9
20260901113047 64 119 0.0 1.0 0.00 0.00 0.00 90 1017.0
20260901112547 64 90 0.0 1.0 0.00 0.00 0.00 90 1017.0
20260901112048 64 90 0.0 1.0 0.00 0.00 0.00 90 1017.0
20260901111554 64 90 0.0 0.0 0.00 0.00 0.00 90 1016.9
20260901111045 64 90 0.0 1.0 0.00 0.00 0.00 90 1016.9
20260901110545 64 90 0.0 2.0 0.00 0.00 0.00 90 1016.8
20260901110047 64 90 0.0 2.0 0.00 0.00 0.00 90 1016.9
20260901105545 64 90 0.0 2.0 0.00 0.00 0.00 90 1016.8
20260901105044 64 111 0.0 2.0 0.00 0.00 0.00 90 1016.8
20260901104545 65 49 0.0 2.0 0.00 0.00 0.00 90 1016.7
20260901104046 65 76 0.0 0.0 0.00 0.00 0.00 91 1016.6
20260901103542 65 76 0.0 0.0 0.00 0.00 0.00 90 1016.6
20260901103049 65 76 0.0 0.0 0.00 0.00 0.00 90 1016.5
20260901102542 64 76 0.0 0.0 0.00 0.00 0.00 90 1016.4
20260901102042 65 76 0.0 0.0 0.00 0.00 0.00 90 1016.4
20260901101542 65 76 0.0 0.0 0.00 0.00 0.00 90 1016.3
20260901101041 65 76 0.0 0.0 0.00 0.00 0.00 90 1016.3
20260901100542 65 76 0.0 0.0 0.00 0.00 0.00 90 1016.1
20260901100041 65 76 0.0 0.0 0.00 0.00 0.00 90 1016.1
20260901095540 64 76 0.0 0.0 0.00 0.00 0.00 90 1016.0
20260901095042 64 76 0.0 1.0 0.00 0.00 0.00 90 1016.0
20260901094541 64 76 0.0 1.0 0.00 0.00 0.00 90 1016.1
20260901094039 64 76 0.0 0.0 0.00 0.00 0.00 90 1016.0
20260901093539 64 76 0.0 0.0 0.00 0.00 0.00 90 1016.0
20260901093039 65 76 0.0 0.0 0.00 0.00 0.00 90 1016.0
20260901092539 65 76 0.0 1.0 0.00 0.00 0.00 90 1016.1
20260901092039 65 76 0.0 1.0 0.00 0.00 0.00 90 1016.1
20260901091540 65 76 0.0 1.0 0.00 0.00 0.00 90 1016.1
20260901091038 65 76 0.0 1.0 0.00 0.00 0.00 89 1016.0
20260901090538 65 76 0.0 1.0 0.00 0.00 0.00 89 1016.0
20260901090039 65 76 0.0 0.0 0.00 0.00 0.00 89 1016.0
20260901085537 65 76 0.0 1.0 0.00 0.00 0.00 89 1015.9
20260901085037 65 76 0.0 1.0 0.00 0.00 0.00 89 1015.9
20260901084545 65 76 0.0 0.0 0.00 0.00 0.00 89 1015.8
20260901084037 65 76 0.0 0.0 0.00 0.00 0.00 89 1016.0
20260901083539 65 76 0.0 0.0 0.00 0.00 0.00 89 1015.9
20260901083036 65 76 0.0 0.0 0.00 0.00 0.00 89 1016.0
20260901082536 65 76 0.0 0.0 0.00 0.00 0.00 89 1016.0
20260901082036 65 76 0.0 0.0 0.00 0.00 0.00 89 1016.0
20260901081536 65 76 0.0 0.0 0.00 0.00 0.00 89 1016.0
20260901081037 65 76 0.0 1.0 0.00 0.00 0.00 89 1016.1
20260901080535 65 76 0.0 1.0 0.00 0.00 0.00 89 1016.1
20260901080045 65 76 0.0 1.0 0.00 0.00 0.00 89 1016.0
20260901075537 65 69 0.0 1.0 0.00 0.00 0.00 89 1015.9
20260901075035 65 84 0.0 1.0 0.00 0.00 0.00 89 1016.0
20260901074533 65 84 0.0 0.0 0.00 0.00 0.00 89 1016.0
20260901074034 65 84 0.0 0.0 0.00 0.00 0.00 89 1016.1
20260901073532 65 84 0.0 0.0 0.00 0.00 0.00 88 1016.3
20260901073042 65 84 0.0 0.0 0.00 0.00 0.00 88 1016.3
20260901072531 65 84 0.0 1.0 0.00 0.00 0.00 88 1016.4
20260901072030 65 84 0.0 1.0 0.00 0.00 0.00 88 1016.5
20260901071531 65 84 0.0 1.0 0.00 0.00 0.00 88 1016.5
20260901071030 65 84 0.0 0.0 0.00 0.00 0.00 89 1016.4
20260901070530 65 84 0.0 1.0 0.00 0.00 0.00 88 1016.4
20260901070030 65 84 0.0 1.0 0.00 0.00 0.00 88 1016.4
20260901065529 65 84 0.0 0.0 0.00 0.00 0.00 89 1016.4
20260901065029 65 84 0.0 1.0 0.00 0.00 0.00 89 1016.5
20260901064528 65 84 0.0 1.0 0.00 0.00 0.00 89 1016.6
20260901064028 65 84 0.0 0.0 0.00 0.00 0.00 89 1016.6
20260901063534 65 84 0.0 0.0 0.00 0.00 0.00 89 1016.7
20260901063028 65 84 0.0 0.0 0.00 0.00 0.00 89 1016.7
20260901062528 65 84 0.0 0.0 0.00 0.00 0.00 89 1016.7
20260901062028 65 84 0.0 0.0 0.00 0.00 0.00 89 1016.7
20260901061527 64 84 0.0 0.0 0.00 0.00 0.00 88 1016.7
20260901061027 65 84 0.0 0.0 0.00 0.00 0.00 89 1016.7
20260901060527 64 84 0.0 1.0 0.00 0.00 0.00 89 1016.7
20260901060038 64 84 0.0 1.0 0.00 0.00 0.00 89 1016.7
20260901055526 64 84 0.0 1.0 0.00 0.00 0.00 89 1016.7
20260901055026 64 84 0.0 0.0 0.00 0.00 0.00 89 1016.8
20260901054528 64 84 0.0 0.0 0.00 0.00 0.00 89 1016.7
20260901054027 64 84 0.0 0.0 0.00 0.00 0.00 89 1016.8
20260901053526 64 84 0.0 1.0 0.00 0.00 0.00 89 1016.7
20260901053028 65 84 0.0 1.0 0.00 0.00 0.00 89 1016.7
20260901052525 65 84 0.0 1.0 0.00 0.00 0.00 89 1016.8
20260901052025 64 84 0.0 1.0 0.00 0.00 0.00 89 1016.8
20260901051526 64 84 0.0 0.0 0.00 0.00 0.00 89 1016.7
20260901051024 64 84 0.0 0.0 0.00 0.00 0.00 88 1016.7
20260901050525 64 84 0.0 0.0 0.00 0.00 0.00 88 1016.7
20260901050024 64 84 0.0 0.0 0.00 0.00 0.00 88 1016.7
20260901045523 64 84 0.0 1.0 0.00 0.00 0.00 88 1016.6
20260901045023 65 84 0.0 1.0 0.00 0.00 0.00 88 1016.7
20260901044524 65 83 0.0 0.0 0.00 0.00 0.00 88 1016.8
20260901044022 65 83 0.0 1.0 0.00 0.00 0.00 87 1016.8
20260901043523 65 83 0.0 2.0 0.00 0.00 0.00 87 1016.8
20260901043020 65 83 0.0 2.0 0.00 0.00 0.00 87 1016.8
20260901042521 65 142 0.0 1.0 0.00 0.00 0.00 87 1016.8
20260901042018 66 142 0.0 0.0 0.00 0.00 0.00 87 1016.6
20260901041519 66 142 0.0 0.0 0.00 0.00 0.00 86 1016.7
20260901041018 66 142 0.0 0.0 0.00 0.00 0.00 86 1016.7
20260901040517 66 142 0.0 0.0 0.00 0.00 0.00 86 1016.8
20260901040139 66 142 0.0 0.0 0.00 0.00 0.00 86 1016.7
20260901035516 66 142 0.0 0.0 0.00 0.00 0.00 86 1016.7
20260901035020 66 142 0.0 0.0 0.00 0.00 0.00 86 1016.7
20260901034516 66 142 0.0 0.0 0.00 0.00 0.00 85 1016.7
20260901034016 66 142 0.0 0.0 0.00 0.00 0.00 85 1016.7
20260901033517 67 142 0.0 0.0 0.00 0.00 0.00 85 1016.7
20260901033015 67 142 0.0 0.0 0.00 0.00 0.00 85 1016.7
20260901032515 67 142 0.0 0.0 0.00 0.00 0.00 85 1016.8
20260901032016 67 142 0.0 0.0 0.00 0.00 0.00 85 1016.8
20260901031514 67 142 0.0 0.0 0.00 0.00 0.00 85 1016.8
20260901031014 67 142 0.0 0.0 0.00 0.00 0.00 85 1016.8
20260901030514 67 142 0.0 0.0 0.00 0.00 0.00 85 1016.9
20260901030015 67 142 0.0 0.0 0.00 0.00 0.00 85 1016.9
20260901025517 67 142 0.0 0.0 0.00 0.00 0.00 84 1016.8
20260901025014 67 142 0.0 0.0 0.00 0.00 0.00 84 1016.8
20260901024514 67 142 0.0 0.0 0.00 0.00 0.00 84 1016.7
20260901024014 67 142 0.0 0.0 0.00 0.00 0.00 84 1016.7
20260901023516 67 142 0.0 0.0 0.00 0.00 0.00 84 1016.6
20260901023013 67 142 0.0 0.0 0.00 0.00 0.00 84 1016.6
20260901022513 67 142 0.0 0.0 0.00 0.00 0.00 84 1016.5
20260901022014 67 142 0.0 0.0 0.00 0.00 0.00 84 1016.6
20260901021523 67 142 0.0 0.0 0.00 0.00 0.00 84 1016.6
20260901021013 67 142 0.0 0.0 0.00 0.00 0.00 84 1016.6
20260901020513 67 142 0.0 0.0 0.00 0.00 0.00 84 1016.6
20260901020013 67 142 0.0 0.0 0.00 0.00 0.00 84 1016.6
20260901015514 67 142 0.0 0.0 0.00 0.00 0.00 83 1016.6
20260901015012 67 142 0.0 0.0 0.00 0.00 0.00 83 1016.6
20260901014512 67 142 0.0 0.0 0.00 0.00 0.00 83 1016.7
20260901014012 67 142 0.0 0.0 0.00 0.00 0.00 83 1016.7
20260901013513 67 142 0.0 0.0 0.00 0.00 0.00 83 1016.7
20260901013012 67 142 0.0 0.0 0.00 0.00 0.00 82 1016.8
20260901012511 67 142 0.0 0.0 0.00 0.00 0.00 82 1016.8
20260901012011 67 142 0.0 0.0 0.00 0.00 0.00 82 1016.8
20260901011511 68 142 0.0 0.0 0.00 0.00 0.00 82 1016.9
20260901011011 68 142 0.0 0.0 0.00 0.00 0.00 82 1016.8
20260901010511 68 142 0.0 0.0 0.00 0.00 0.00 81 1016.9
20260901010011 68 142 0.0 0.0 0.00 0.00 0.00 81 1016.9
20260901005514 68 142 0.0 0.0 0.00 0.00 0.00 81 1016.9
20260901005010 68 142 0.0 0.0 0.00 0.00 0.00 81 1016.9
20260901004510 68 142 0.0 0.0 0.00 0.00 0.00 80 1016.8
20260901004009 68 142 0.0 0.0 0.00 0.00 0.00 79 1016.8
20260901003509 69 142 0.0 0.0 0.00 0.00 0.00 79 1016.8
20260901003016 69 142 0.0 0.0 0.00 0.00 0.00 79 1016.7
20260901002509 69 142 0.0 0.0 0.00 0.00 0.00 79 1016.7
20260901002013 69 142 0.0 0.0 0.00 0.00 0.00 79 1016.6
20260901001509 69 142 0.0 0.0 0.00 0.00 0.00 79 1016.6
20260901001008 69 142 0.0 0.0 0.00 0.00 0.00 78 1016.6
20260901000508 69 142 0.0 0.0 0.00 0.00 0.00 78 1016.6
20260901000008 69 142 0.0 0.0 0.00 0.00 0.00 77 1016.5
20260831235508 70 142 0.0 0.0 0.00 0.00 0.00 77 1016.4
20260831235008 70 142 0.0 0.0 0.00 0.00 0.00 76 1016.5
20260831234508 70 142 0.0 0.0 0.00 0.00 0.00 76 1016.4
20260831234008 70 142 0.0 0.0 0.00 0.00 0.00 76 1016.4
20260831233507 71 142 0.0 0.0 0.00 0.00 0.00 75 1016.5
20260831233012 71 142 0.0 0.0 0.00 0.00 0.00 75 1016.5
20260831232511 71 142 0.0 0.0 0.00 0.00 0.00 75 1016.7
20260831232010 71 142 0.0 0.0 0.00 0.00 0.00 74 1016.8
20260831231516 71 142 0.0 0.0 0.00 0.00 0.00 74 1016.8
20260831231107 72 142 0.0 0.0 0.00 0.00 0.00 73 1016.7
20260831230507 72 142 0.0 0.0 0.00 0.00 0.00 73 1016.7
20260831230009 72 142 0.0 0.0 0.00 0.00 0.00 72 1016.8
20260831225509 72 142 0.0 1.0 0.00 0.00 0.00 72 1016.8
20260831225006 72 142 0.0 1.0 0.00 0.00 0.00 71 1016.9
20260831224506 72 142 0.0 0.0 0.00 0.00 0.00 70 1016.9
20260831224006 72 142 0.0 1.0 0.00 0.00 0.00 70 1017.0
20260831223507 73 142 0.0 1.0 0.00 0.00 0.00 69 1017.0
20260831223006 73 142 0.0 2.0 0.00 0.00 0.00 69 1016.9
20260831222505 73 189 0.0 2.0 0.00 0.00 0.00 69 1017.0
20260831222005 73 176 0.0 2.0 0.00 0.00 0.00 68 1017.0
20260831221506 73 74 0.0 1.0 0.00 0.00 0.00 67 1016.9
20260831221005 73 62 0.0 4.0 0.00 0.00 0.00 67 1016.9
20260831220505 74 58 0.0 4.0 0.00 0.00 0.00 66 1016.8
20260831220005 74 191 0.0 2.0 0.00 0.00 0.00 66 1016.8
20260831215505 74 192 0.0 2.0 0.00 0.00 0.00 66 1016.8
20260831215005 74 184 1.0 2.0 0.00 0.00 0.00 64 1016.8
20260831214504 74 309 0.0 4.0 0.00 0.00 0.00 65 1016.8
20260831214004 74 237 1.0 4.0 0.00 0.00 0.00 65 1016.7
20260831213506 74 195 0.0 4.0 0.00 0.00 0.00 64 1016.8
20260831213004 74 161 0.0 4.0 0.00 0.00 0.00 63 1016.8
20260831212504 74 351 0.0 2.0 0.00 0.00 0.00 63 1016.7
20260831212004 74 351 0.0 2.0 0.00 0.00 0.00 64 1016.8
20260831211504 75 111 0.0 4.0 0.00 0.00 0.00 64 1016.8
20260831211002 75 243 0.0 4.0 0.00 0.00 0.00 62 1016.9
20260831210503 75 115 0.0 4.0 0.00 0.00 0.00 63 1017.0
20260831210002 75 51 1.0 4.0 0.00 0.00 0.00 63 1017.0
20260831205502 75 180 1.0 4.0 0.00 0.00 0.00 61 1017.0
20260831205005 75 188 0.0 4.0 0.00 0.00 0.00 60 1017.1
20260831204502 75 336 0.0 4.0 0.00 0.00 0.00 60 1017.1
20260831204003 75 171 1.0 6.0 0.00 0.00 0.00 61 1017.1
20260831203501 76 84 1.0 6.0 0.00 0.00 0.00 60 1017.0
20260831203000 76 167 0.0 4.0 0.00 0.00 0.00 59 1017.0
20260831202500 76 200 1.0 4.0 0.00 0.00 0.00 60 1017.1
20260831202103 76 161 1.0 2.0 0.00 0.00 0.00 60 1017.0
20260831201604 76 255 0.0 4.0 0.00 0.00 0.00 58 1017.0
20260831201104 76 205 1.0 5.0 0.00 0.00 0.00 58 1017.1
20260831200600 77 313 1.0 5.0 0.00 0.00 0.00 58 1017.1
20260831200109 77 244 0.0 4.0 0.00 0.00 0.00 58 1017.1
20260831195559 77 229 1.0 4.0 0.00 0.00 0.00 56 1017.2
20260831195059 77 40 1.0 4.0 0.00 0.00 0.00 56 1017.2
20260831194637 77 51 1.0 4.0 0.00 0.00 0.00 55 1017.2
20260831194059 77 167 1.0 4.0 0.00 0.00 0.00 55 1017.2
20260831193559 77 137 0.0 4.0 0.00 0.00 0.00 54 1017.2
20260831193101 77 217 1.0 3.0 0.00 0.00 0.00 54 1017.3
20260831192558 77 147 1.0 4.0 0.00 0.00 0.00 53 1017.3
20260831192057 77 355 0.0 4.0 0.00 0.00 0.00 52 1017.3
20260831191557 77 329 1.0 3.0 0.00 0.00 0.00 52 1017.4
20260831191101 77 145 1.0 4.0 0.00 0.00 0.00 54 1017.5
20260831190558 77 314 0.0 2.0 0.00 0.00 0.00 52 1017.6
20260831190105 78 220 0.0 2.0 0.00 0.00 0.00 52 1017.7
20260831185557 78 88 1.0 5.0 0.00 0.00 0.00 51 1017.7
20260831185056 79 114 1.0 4.0 0.00 0.00 0.00 48 1017.6
20260831184556 79 276 1.0 5.0 0.00 0.00 0.00 50 1017.8
20260831184100 79 256 2.0 5.0 0.00 0.00 0.00 49 1017.9
20260831183554 79 222 1.0 3.0 0.00 0.00 0.00 48 1017.9
20260831183105 79 283 1.0 3.0 0.00 0.00 0.00 47 1018.1
20260831182553 78 166 1.0 4.0 0.00 0.00 0.00 50 1018.1
20260831182058 78 189 1.0 2.0 0.00 0.00 0.00 50 1018.2
20260831181553 78 101 1.0 4.0 0.00 0.00 0.00 55 1018.1
20260831181052 78 100 1.0 3.0 0.00 0.00 0.00 54 1018.2
20260831180551 78 34 1.0 4.0 0.00 0.00 0.00 53 1018.3
20260831180109 78 225 0.0 2.0 0.00 0.00 0.00 53 1018.2
20260831175551 77 83 0.0 4.0 0.00 0.00 0.00 55 1018.2
20260831175054 77 184 0.0 4.0 0.00 0.00 0.00 52 1018.2
20260831174553 77 226 1.0 2.0 0.00 0.00 0.00 56 1018.3
20260831174051 77 213 1.0 2.0 0.00 0.00 0.00 50 1018.3
20260831173551 77 157 0.0 2.0 0.00 0.00 0.00 55 1018.3
20260831173050 77 130 1.0 5.0 0.00 0.00 0.00 50 1018.3
20260831172550 79 171 1.0 5.0 0.00 0.00 0.00 49 1018.5
20260831172049 78 194 1.0 4.0 0.00 0.00 0.00 52 1018.5
20260831171552 78 27 1.0 4.0 0.00 0.00 0.00 52 1018.6
20260831171050 77 123 0.0 2.0 0.00 0.00 0.00 53 1018.7
20260831170549 78 196 0.0 4.0 0.00 0.00 0.00 52 1018.8
20260831170049 78 32 1.0 5.0 0.00 0.00 0.00 50 1018.8
20260831165549 79 294 0.0 5.0 0.00 0.00 0.00 50 1018.8
20260831165047 78 89 0.0 5.0 0.00 0.00 0.00 52 1018.9
20260831164549 78 92 1.0 4.0 0.00 0.00 0.00 51 1019.0
20260831164045 77 209 1.0 4.0 0.00 0.00 0.00 52 1019.1
20260831163545 77 197 0.0 5.0 0.00 0.00 0.00 53 1019.1
20260831163045 77 303 2.0 5.0 0.00 0.00 0.00 51 1019.2
20260831162545 77 216 2.0 5.0 0.00 0.00 0.00 49 1019.1
20260831162045 77 190 0.0 2.0 0.00 0.00 0.00 54 1019.1
20260831161550 77 32 0.0 3.0 0.00 0.00 0.00 55 1019.2
20260831161044 78 71 0.0 3.0 0.00 0.00 0.00 54 1019.3
20260831160544 78 198 0.0 5.0 0.00 0.00 0.00 51 1019.3
20260831160043 77 100 1.0 6.0 0.00 0.00 0.00 52 1019.4
20260831155542 77 49 2.0 6.0 0.00 0.00 0.00 52 1019.4
20260831155041 76 80 0.0 5.0 0.00 0.00 0.00 48 1019.4
20260831154540 76 271 2.0 6.0 0.00 0.00 0.00 53 1019.3
20260831154038 75 168 0.0 6.0 0.00 0.00 0.00 52 1019.4
20260831153540 75 118 0.0 4.0 0.00 0.00 0.00 54 1019.5
20260831153036 75 103 2.0 3.0 0.00 0.00 0.00 57 1019.4
20260831152538 75 171 1.0 5.0 0.00 0.00 0.00 54 1019.5
20260831152035 75 105 2.0 5.0 0.00 0.00 0.00 60 1019.5
20260831151535 74 178 0.0 2.0 0.00 0.00 0.00 55 1019.6
20260831151035 74 139 0.0 6.0 0.00 0.00 0.00 56 1019.6
20260831150533 74 125 3.0 6.0 0.00 0.00 0.00 54 1019.8
20260831150031 74 107 1.0 8.0 0.00 0.00 0.00 58 1019.7
20260831145528 74 117 3.0 7.0 0.00 0.00 0.00 58 1019.8
20260831145027 73 128 2.0 6.0 0.00 0.00 0.00 61 1019.8
20260831144525 72 212 1.0 7.0 0.00 0.00 0.00 55 1019.8
20260831144026 72 321 2.0 7.0 0.00 0.00 0.00 59 1019.9
20260831143522 72 102 1.0 4.0 0.00 0.00 0.00 60 1020.0
20260831143021 72 94 1.0 4.0 0.00 0.00 0.00 62 1020.0
20260831142521 72 321 0.0 4.0 0.00 0.00 0.00 61 1020.1
20260831142022 72 135 1.0 4.0 0.00 0.00 0.00 62 1020.0
20260831141518 71 149 0.0 2.0 0.00 0.00 0.00 64 1020.0
20260831141016 71 257 0.0 4.0 0.00 0.00 0.00 62 1020.0
20260831140514 71 115 0.0 2.0 0.00 0.00 0.00 64 1019.9
20260831140014 70 103 0.0 2.0 0.00 0.00 0.00 65 1019.9